Dewpoint
71 72 74 75 74 74 74 74 74 74 74 74 74 74 74 75 74 74 74 74 74 74 74 73 73 72 72 72 71 71 70 70 70 69 68 69 69 69 69 69 69 68 67 67 68 69 69 69 69 69 69 70 70 70 70 69 69 69 69 68 68 67 67 67 67 67 67 67 67 68 67 67 67 67 66 66 66 66 66 65 64 63 63 62 64
71 73 74 75 74 74 73 74 74 74 74 74 74 74 74 74 75 75 74 74 73 73 73 73 72 72 71 71 71 70 71 70 69 69 69 69 68 69 69 69 69 68 68 68 68 69 69 69 68 68 69 69 69 69 70 70 69 69 69 68 68 68 68 68 68 68 68 68 67 66 66 67 66 67 66 65 66 66 65 65 64 64 63 63 63
73 73 74 75 75 74 73 74 74 74 74 74 74 74 74 75 75 75 74 74 73 73 73 73 72 72 71 71 71 70 70 69 69 69 69 69 69 69 68 68 68 67 67 68 68 68 68 68 67 68 68 68 68 68 69 69 68 69 69 68 69 69 68 69 69 68 69 67 66 67 67 66 66 66 66 66 65 65 64 64 64 64 61 64 63
73 73 74 75 75 75 74 74 74 74 74 74 74 74 74 74 74 74 74 73 73 73 72 72 72 72 72 72 71 70 70 69 69 69 68 69 69 68 68 68 67 67 67 67 68 68 67 67 66 67 68 67 67 68 68 69 68 69 68 68 69 70 69 69 69 68 68 67 67 66 66 65 65 66 66 66 65 65 65 65 65 64 64 64 64
72 73 74 75 75 75 74 74 74 74 74 74 74 74 74 74 74 73 73 73 73 73 73 72 72 72 72 72 71 70 69 69 70 70 69 69 69 68 68 67 67 67 67 67 67 67 66 66 66 66 66 67 67 67 68 68 68 68 68 68 69 69 69 69 68 68 67 67 67 66 64 63 64 66 66 66 66 66 65 65 65 65 65 64 64
72 73 74 74 74 75 75 74 74 74 74 74 74 74 74 73 73 73 73 73 73 73 73 72 72 72 71 71 71 70 70 69 70 70 71 70 70 68 67 67 67 67 67 67 67 67 66 66 66 66 67 67 67 66 67 68 68 68 68 67 68 68 68 68 67 67 66 66 66 64 63 63 64 64 66 66 66 65 65 65 65 65 64 64 64
72 73 73 74 74 75 74 74 74 74 74 74 74 74 73 73 73 74 74 74 74 73 73 73 73 72 71 70 70 71 72 70 69 70 71 71 70 69 68 67 67 66 66 67 67 67 66 66 66 67 66 66 66 66 67 67 68 67 67 68 68 68 68 67 67 67 66 65 63 64 64 63 64 63 65 65 65 65 65 65 65 65 64 64 63
72 73 73 73 74 74 74 74 74 73 73 74 74 74 74 74 74 74 74 74 73 73 73 73 73 72 70 70 71 71 71 70 69 70 70 70 71 70 69 68 68 67 66 66 67 67 67 66 66 66 66 66 67 67 67 67 67 67 67 67 68 68 68 67 67 66 66 64 64 64 63 63 63 63 65 65 66 66 65 65 64 64 64 64 63
71 72 72 73 74 74 74 74 74 74 73 74 74 74 74 74 74 74 74 73 73 73 74 73 73 73 71 71 70 70 71 71 70 70 69 70 70 70 70 70 69 68 67 68 67 67 67 66 66 66 67 67 67 67 68 68 69 69 68 68 67 67 67 67 67 67 65 65 64 64 63 64 64 64 66 66 65 65 65 65 64 64 64 63 63
71 72 72 73 73 74 74 74 74 74 73 72 73 73 74 74 74 74 74 74 74 74 74 73 72 73 73 71 71 70 70 70 70 70 69 69 70 70 71 70 69 68 68 67 66 67 67 66 66 66 67 67 67 67 68 68 68 68 68 67 68 67 67 67 66 66 64 64 64 65 67 66 64 64 64 65 65 65 64 64 64 63 63 63 63
71 71 72 73 73 73 73 73 74 74 74 72 72 73 74 74 74 74 74 74 74 74 74 73 72 71 72 71 70 70 71 70 70 70 69 69 70 70 70 69 69 69 70 68 66 66 66 66 66 67 68 68 68 68 68 68 67 66 66 67 67 67 66 66 65 63 64 64 64 66 66 66 64 65 65 65 65 64 64 64 63 63 63 62 63
70 71 72 72 72 73 73 73 73 73 73 73 72 72 72 72 73 74 74 74 74 74 74 73 73 73 73 72 71 71 70 71 70 70 69 69 70 69 70 69 69 69 70 69 67 66 66 66 67 68 68 67 67 67 67 67 67 67 67 68 68 67 66 65 62 63 63 64 65 65 64 63 64 64 65 65 65 63 63 63 63 63 63 62 63
70 71 72 73 73 73 73 73 73 73 73 73 72 72 71 71 72 72 72 73 73 74 74 74 73 71 72 72 72 72 72 71 71 70 71 71 71 70 69 68 69 69 70 70 68 67 67 68 67 67 67 67 67 67 66 66 67 68 68 68 68 67 66 65 62 62 63 64 64 64 63 64 65 65 65 65 64 64 64 63 63 63 63 62 62
69 70 71 72 72 73 73 73 73 73 73 73 73 72 71 71 72 71 71 72 72 73 73 73 73 72 73 72 72 72 73 73 71 71 71 70 70 70 70 68 68 69 69 70 70 68 67 68 68 68 68 68 67 67 67 66 66 67 68 68 68 67 66 65 64 63 64 63 65 63 64 66 65 65 65 64 64 64 63 63 63 63 62 62 62
69 70 71 72 71 71 73 73 72 72 72 72 72 72 72 72 71 70 71 72 72 72 72 73 73 72 72 72 71 71 73 72 71 71 71 70 69 69 70 69 69 69 69 69 69 69 69 69 68 68 68 68 68 68 67 67 66 66 67 68 67 66 65 62 62 63 63 64 65 63 63 65 66 65 65 64 63 63 63 63 62 62 62 62 62
70 71 70 70 70 71 71 72 72 72 72 72 72 72 72 72 72 71 71 72 72 71 72 73 73 72 71 71 71 71 71 71 71 71 71 70 70 69 70 69 69 69 69 69 69 69 69 69 69 69 69 69 68 67 67 66 66 66 67 68 67 66 65 64 63 63 63 63 65 65 64 66 67 65 64 64 64 63 62 62 62 62 61 61 61
70 70 70 70 70 70 71 72 72 72 72 72 72 72 72 72 72 72 72 70 71 72 72 71 69 72 71 71 71 70 71 70 70 71 71 71 71 70 70 70 69 70 69 69 70 70 69 70 69 69 69 69 68 67 67 66 66 67 68 67 67 66 65 64 62 63 63 64 64 64 64 65 66 66 64 63 63 62 62 62 62 61 61 62 61
69 69 69 69 69 69 70 70 70 71 71 72 72 71 72 72 72 72 71 70 69 69 70 70 70 68 70 69 69 68 70 70 71 71 70 71 71 70 69 70 70 70 70 70 69 70 69 69 69 69 68 68 68 67 66 66 67 67 67 67 66 67 65 65 63 63 64 65 63 65 65 67 67 65 63 63 63 62 62 61 61 61 61 61 61
69 69 69 69 69 69 69 70 70 70 71 71 70 71 72 72 72 72 71 70 69 69 69 68 71 70 69 67 68 69 69 70 71 71 71 71 70 70 70 70 70 70 70 70 70 70 70 68 69 69 68 67 67 67 67 67 67 67 67 66 66 66 66 65 63 63 65 64 64 64 64 66 66 64 64 63 63 62 61 61 61 61 61 61 61
69 69 69 69 69 68 68 68 69 69 70 71 71 71 72 72 72 72 71 70 69 69 69 69 70 71 70 69 70 70 70 68 70 70 70 70 70 70 70 70 70 70 70 70 70 70 70 69 68 69 68 67 67 67 67 68 68 67 66 66 66 66 66 62 62 63 63 63 65 64 65 66 65 64 64 64 63 62 61 61 61 61 61 61 60
68 68 68 68 68 68 67 66 67 68 69 70 70 71 71 72 71 71 71 70 70 69 69 69 70 69 70 70 69 68 68 68 70 69 69 69 69 70 69 70 70 69 70 70 70 70 69 69 68 69 68 67 67 67 67 67 68 67 66 66 67 64 62 62 62 64 63 65 66 63 66 65 64 64 64 63 63 63 62 62 62 62 61 61 60
67 67 67 67 66 65 65 65 66 66 68 69 70 71 71 70 68 69 70 69 69 68 68 69 70 67 70 68 67 68 67 66 67 68 69 69 70 70 69 68 68 65 66 70 70 70 69 69 69 68 68 67 68 64 65 68 68 67 66 65 62 62 62 62 63 63 64 64 65 64 66 65 64 64 63 63 63 62 62 62 61 61 60 60 61
66 67 67 66 63 64 65 65 64 64 65 68 69 71 70 71 70 69 69 69 70 70 68 68 66 68 67 66 66 65 66 66 67 68 68 68 69 70 69 69 67 66 66 69 70 70 70 69 69 68 69 67 63 62 61 62 65 67 65 62 62 62 62 62 62 63 63 64 64 65 67 65 65 64 63 63 63 62 62 62 61 61 61 60 60
66 66 66 65 63 63 63 64 64 64 64 66 68 69 70 70 71 70 69 68 68 68 68 66 68 68 67 65 64 64 66 66 67 66 67 67 67 69 68 67 68 66 68 69 69 69 69 69 68 69 67 65 63 62 62 61 61 60 62 62 62 62 62 62 62 62 63 65 63 66 67 66 65 64 63 63 63 61 61 61 61 61 61 60 60
66 66 66 64 63 62 63 63 64 64 64 66 68 68 68 69 70 71 70 69 68 67 67 67 67 67 67 65 63 64 64 66 65 66 65 66 66 65 66 67 67 67 69 67 67 68 67 66 66 66 65 64 63 62 62 62 62 61 61 61 62 61 62 62 62 62 63 64 65 66 67 66 65 64 64 63 63 62 61 62 61 61 61 61 60
63 65 65 62 62 63 63 62 65 64 64 65 65 68 68 68 69 70 70 70 69 67 66 67 66 67 66 65 64 64 64 65 65 64 65 66 65 65 66 66 68 68 68 67 67 67 66 65 65 65 65 65 64 63 63 63 61 61 62 61 61 61 62 62 62 62 63 63 65 66 68 67 66 65 64 63 63 63 62 61 61 61 61 60 59
63 63 61 61 61 63 63 63 63 62 63 65 65 65 66 67 68 68 69 69 70 69 66 65 66 67 66 66 63 63 64 64 64 64 65 65 66 66 67 69 68 67 67 67 67 67 66 65 64 65 64 64 64 63 61 61 62 62 61 62 61 61 61 61 62 62 63 63 65 66 68 67 67 66 64 64 63 64 63 61 61 61 61 61 60
58 56 57 59 62 62 62 62 62 62 62 63 63 64 65 66 67 69 67 70 69 67 66 64 64 66 66 66 66 65 65 65 65 65 66 65 66 68 70 70 69 67 67 67 67 66 65 65 64 62 64 63 64 62 61 61 61 61 62 61 61 61 61 61 61 62 62 63 64 66 68 68 68 66 65 64 63 64 63 62 62 62 60 61 60
57 54 55 58 58 60 61 61 62 62 61 62 63 64 65 64 66 65 65 69 64 65 66 65 64 65 65 66 68 67 67 66 65 66 65 65 65 68 70 70 69 68 67 66 66 66 64 63 63 62 61 61 60 61 60 60 61 61 61 61 61 61 60 61 61 61 62 63 63 64 67 68 67 67 66 65 64 64 64 63 63 61 61 61 60
56 53 53 56 54 58 62 61 61 62 61 62 61 62 62 63 63 64 64 67 62 65 67 66 65 65 65 65 66 67 67 66 63 63 65 64 65 65 69 70 69 67 66 66 65 65 64 63 62 62 61 60 60 60 61 60 60 61 61 61 60 61 61 60 61 61 62 62 63 64 66 68 67 67 67 66 65 64 64 64 63 62 61 61 61
52 52 54 54 57 58 60 61 61 64 60 61 59 60 61 63 65 65 64 64 63 65 66 67 66 65 65 66 67 68 68 67 62 60 64 64 64 65 66 68 68 67 66 66 65 65 64 64 62 62 61 60 60 60 60 60 59 60 62 61 61 61 61 61 60 61 61 62 63 63 64 67 67 67 67 67 66 65 64 64 63 62 62 62 61
52 53 54 53 55 58 59 59 59 60 60 60 62 60 61 63 63 62 63 65 65 65 64 64 66 65 66 65 66 66 66 66 63 59 61 63 64 65 66 67 67 67 66 65 65 65 65 64 63 62 62 60 60 60 60 60 59 59 60 61 61 61 61 61 60 60 61 62 62 63 64 65 67 67 66 66 66 67 65 64 63 63 62 62 62
52 53 52 54 55 56 59 56 58 57 58 58 58 57 57 59 60 60 63 65 64 63 63 63 63 64 65 65 64 65 65 64 63 64 62 63 65 64 66 67 68 67 66 65 65 64 64 64 63 63 63 62 62 62 61 60 60 60 60 61 61 61 61 60 61 60 60 61 62 62 63 64 65 66 66 66 66 66 67 66 64 63 63 63 63
51 51 52 54 55 56 57 55 56 56 56 55 56 55 55 56 59 57 63 60 60 62 64 62 63 63 64 64 64 64 65 66 64 64 62 62 63 65 66 66 67 66 66 65 65 65 64 64 63 64 65 63 62 62 62 61 60 60 60 61 61 61 60 60 60 60 61 61 61 62 62 63 63 65 65 66 66 66 66 66 65 64 64 63 62
51 50 52 53 55 55 55 55 57 55 56 56 54 54 54 52 51 54 57 58 59 60 60 61 60 60 64 65 65 64 64 64 65 64 62 63 63 64 66 66 66 66 66 65 65 65 64 64 64 63 63 63 63 62 61 60 59 59 60 61 61 60 60 60 60 60 60 61 61 62 62 62 63 63 64 64 66 66 65 66 67 67 65 64 63
50 50 51 52 53 53 56 54 55 54 53 54 51 51 50 52 55 60 55 55 56 57 57 59 61 60 62 64 64 65 65 65 64 64 62 63 64 64 65 66 66 66 66 65 65 65 64 64 64 64 63 63 62 62 61 61 60 59 60 61 61 61 60 60 60 60 60 60 60 61 62 62 62 62 64 63 64 64 65 65 66 66 67 65 64
49 49 51 51 52 53 55 53 53 54 53 51 50 49 49 49 50 51 52 54 54 56 57 58 58 59 59 61 64 66 64 65 64 64 63 64 64 64 65 65 65 64 65 66 66 64 64 65 64 64 64 64 64 62 62 60 59 59 59 60 61 61 61 60 60 60 60 60 61 61 61 62 62 64 63 63 63 63 64 65 65 65 66 66 65
49 49 50 50 51 52 51 52 53 53 51 50 49 50 51 52 53 54 59 54 55 56 57 57 57 58 59 61 64 67 67 66 65 66 64 64 64 64 64 64 65 64 64 65 65 65 64 64 64 64 64 63 63 64 63 62 60 59 59 58 60 61 61 61 60 61 60 60 61 61 61 61 62 62 62 62 62 62 62 63 65 65 66 65 65
49 49 49 49 50 49 51 54 52 50 50 50 51 51 51 52 52 52 53 54 54 54 55 56 56 57 58 61 64 65 65 66 66 66 64 63 63 63 63 64 64 64 64 63 63 64 63 63 63 63 64 64 64 64 64 62 62 61 60 59 59 59 61 61 61 60 60 60 60 61 60 61 61 61 62 62 62 62 62 62 63 64 65 65 65
49 48 49 48 48 49 50 51 50 49 50 51 51 50 50 52 52 52 53 53 53 55 53 53 55 56 58 59 60 61 62 62 61 62 63 63 63 63 63 64 64 64 63 62 62 62 63 62 62 63 63 64 65 64 64 64 63 62 61 60 59 59 59 60 60 60 60 60 61 61 61 61 61 61 61 61 61 61 62 62 62 63 64 64 65
48 48 47 48 47 48 50 49 49 50 51 50 49 48 48 47 48 49 50 49 52 52 52 52 53 55 55 56 56 56 56 57 58 58 59 61 60 59 61 62 63 63 62 61 63 63 64 63 63 62 63 63 63 64 64 64 62 60 59 60 59 59 59 60 59 60 60 60 60 61 61 61 61 61 61 61 61 61 61 61 61 62 63 64 65
48 47 47 47 47 49 49 48 49 50 50 49 50 48 47 48 48 48 48 49 50 50 50 51 53 54 53 52 53 52 52 55 59 57 56 56 57 57 58 59 61 61 62 62 62 63 64 63 62 61 62 62 61 63 63 63 61 58 58 58 58 58 59 58 58 58 59 60 60 60 61 61 61 61 61 61 61 61 61 61 62 61 61 63 64
47 47 46 46 47 48 48 48 49 49 50 51 50 48 48 49 48 48 51 49 48 50 49 53 54 51 51 52 53 51 52 54 55 59 56 56 55 56 56 57 58 59 59 60 60 61 62 63 62 61 61 62 62 63 62 62 60 60 60 58 56 55 57 57 57 57 58 58 59 59 59 60 60 61 61 61 61 61 60 61 61 61 62 62 63
48 46 46 46 47 49 48 48 49 49 50 53 52 50 50 49 49 50 49 48 48 55 50 50 50 50 50 50 52 51 52 53 54 56 55 54 54 55 55 56 56 57 57 57 57 59 60 60 62 63 62 59 60 61 63 62 61 60 56 57 56 54 53 55 55 56 57 57 57 58 59 59 59 60 61 61 61 61 61 61 60 61 62 62 62
48 46 46 46 47 48 47 48 49 49 50 54 52 51 51 51 51 49 49 48 49 48 49 49 50 55 51 49 50 51 51 52 53 55 57 54 54 54 55 55 55 55 55 55 55 56 58 60 61 62 62 61 61 61 62 63 62 62 60 57 55 53 54 55 56 56 56 55 56 56 58 59 59 59 60 60 61 62 61 61 61 61 62 62 62
47 47 46 46 47 47 47 48 49 49 50 52 51 50 50 50 49 48 44 44 44 45 46 48 48 49 48 49 49 50 51 52 52 53 56 55 53 54 54 55 55 55 55 55 55 55 55 56 57 60 61 62 62 61 61 62 63 62 62 60 59 56 55 57 57 54 56 57 57 57 55 56 58 59 59 59 60 60 61 61 62 61 61 61 62
47 47 47 46 46 47 47 48 48 49 50 52 50 51 48 49 49 49 46 43 44 44 45 46 49 48 49 49 48 50 51 51 53 53 54 55 53 53 53 54 54 55 56 54 54 54 55 55 56 56 58 59 61 60 60 61 61 61 61 61 60 60 60 57 55 56 54 57 57 57 58 58 56 56 57 58 59 60 61 61 61 61 61 61 61
47 47 47 46 45 46 47 48 49 51 51 51 50 49 48 49 49 48 48 45 44 44 46 46 48 51 48 49 49 49 50 52 52 53 54 55 53 52 52 53 53 54 54 53 53 53 53 54 55 55 55 56 58 58 58 59 59 59 60 60 60 60 60 60 59 58 56 55 55 58 58 58 59 59 58 57 58 59 60 59 59 60 61 61 61
47 47 46 46 45 46 48 48 49 50 51 51 50 48 49 48 49 49 48 47 46 46 49 51 49 51 47 48 49 48 50 50 51 53 53 54 54 52 52 52 52 53 54 51 52 52 52 52 53 53 54 54 56 57 57 57 58 57 58 58 60 60 60 60 60 60 58 56 55 56 56 57 58 59 59 59 59 59 59 59 58 58 59 61 61
47 48 47 47 46 46 48 49 48 50 50 50 50 48 48 50 48 48 48 47 49 47 47 48 48 47 47 48 49 48 49 50 51 51 51 51 51 52 51 51 52 53 53 50 50 50 51 51 51 52 52 52 54 54 54 55 55 56 57 57 57 57 57 58 59 58 58 59 55 54 56 57 56 57 58 59 59 60 59 59 59 58 59 60 60
47 47 47 47 47 47 47 48 48 49 51 50 49 48 47 48 48 48 48 47 48 47 47 47 47 46 47 47 48 47 49 49 50 51 51 52 52 53 51 51 52 54 51 50 50 50 50 50 50 51 51 51 52 52 52 53 53 54 55 56 56 56 55 55 55 56 56 56 56 56 56 56 56 56 58 60 59 58 58 59 59 58 59 59 60